Wind_Speed
18 18 19 21 22 24 25 22 21 23 27 27 23 21 20 18 16 14 12 11 13 14 14 14 15 15 15 15 15 15 15 15 15 14 14 15 14 14 14 13 13 13 14 14 13 13 14 14 15 15 15 15 14 13 12 11 10 10 10 10 10 10 9 9 10 10 9 8 8 8 8 9 9 8 8 7 7 6 5 5 6 6 7 7 8
17 16 18 20 22 24 26 21 16 21 24 22 19 18 17 15 13 13 12 13 15 16 15 15 16 16 16 16 16 15 14 14 14 15 15 14 14 14 13 13 12 13 13 13 13 13 13 13 14 14 14 14 13 13 12 11 10 10 10 10 9 8 8 9 10 9 8 8 8 8 8 9 8 8 7 7 6 6 5 5 5 5 6 6 6
17 17 17 18 21 22 24 22 14 13 14 12 13 15 13 13 14 15 16 15 16 17 17 17 17 17 17 16 15 14 13 13 14 15 14 13 13 13 13 13 12 12 12 12 12 13 12 12 12 12 13 12 12 12 11 11 10 10 10 10 9 8 8 8 9 9 8 8 7 7 8 7 7 6 5 4 4 3 3 3 4 4 5 5 5
18 18 18 17 19 20 22 22 13 7 8 8 9 11 10 10 11 13 15 15 17 20 21 21 21 20 17 15 14 13 13 13 13 13 13 13 13 13 13 13 12 12 12 12 12 12 11 11 11 12 12 12 11 11 11 10 10 10 10 10 9 9 8 8 9 8 8 8 7 6 6 6 4 3 2 2 2 2 2 2 3 3 3 4 4
18 18 19 18 18 19 20 20 12 4 4 5 7 8 10 10 8 10 12 13 16 20 20 20 20 18 16 14 13 13 14 14 14 13 13 13 13 13 13 13 12 12 12 11 11 11 11 11 12 13 12 11 11 11 11 10 10 10 10 10 9 9 8 8 8 7 7 7 6 5 5 5 4 3 3 3 3 3 3 3 3 3 3 3 4
17 18 19 18 18 18 17 17 13 5 3 5 6 7 9 10 10 10 10 11 15 19 19 19 18 16 15 15 14 14 15 15 15 15 14 13 13 13 13 13 12 12 12 12 11 11 11 11 12 12 12 12 11 11 11 10 10 11 11 10 9 8 8 8 7 7 7 6 6 6 6 6 6 5 5 4 4 4 4 4 4 4 5 5 5
18 18 18 17 16 16 15 14 12 8 6 6 7 8 9 10 11 11 11 12 15 18 19 18 17 16 16 16 15 15 16 16 16 15 14 14 14 13 13 13 13 12 12 12 11 11 11 11 11 11 12 12 11 11 11 11 11 11 11 10 9 8 8 7 6 7 7 6 6 6 7 6 6 7 7 6 7 7 7 6 6 6 7 7 8
18 18 17 15 14 13 12 12 10 8 8 9 9 9 9 10 11 12 12 13 15 19 21 21 21 20 17 16 16 16 16 16 16 15 15 14 14 14 14 13 13 12 12 11 11 11 11 11 11 11 11 11 11 11 11 12 12 12 12 11 10 9 8 8 7 7 7 7 7 7 7 7 8 8 8 8 9 10 9 9 9 9 10 10 11
17 18 16 15 14 14 12 10 10 9 10 11 12 12 12 11 11 12 13 14 16 20 22 22 23 21 18 16 17 17 16 16 16 16 15 15 15 14 14 13 12 11 11 11 11 11 11 11 11 11 11 10 10 11 11 11 11 12 12 11 11 10 10 10 9 9 9 10 9 9 9 10 10 10 11 11 12 12 12 12 12 12 13 13 14
17 18 17 15 15 15 13 10 9 9 10 12 13 15 15 13 12 13 14 15 17 19 20 20 22 22 19 17 18 18 17 18 17 16 16 15 14 13 12 12 12 11 11 12 11 11 11 11 11 11 11 11 11 11 11 11 11 11 12 12 12 12 12 12 12 12 12 12 12 12 12 12 13 13 13 14 14 14 14 15 15 15 15 15 16
16 17 17 17 16 15 13 10 8 8 10 13 13 14 15 14 12 12 14 15 17 20 21 21 23 23 19 18 18 18 19 19 18 16 15 14 13 12 11 11 11 11 11 11 11 11 12 12 12 12 11 11 12 11 11 11 12 12 13 14 14 14 14 14 14 14 14 14 15 15 15 15 15 15 15 15 15 15 16 16 17 17 16 16 18
15 16 17 16 16 15 13 11 10 9 9 11 11 10 12 12 10 11 13 14 16 21 23 23 24 24 20 18 18 18 19 19 18 17 15 14 12 11 11 10 10 10 10 10 10 11 11 12 13 12 12 12 12 12 12 13 14 14 14 14 14 14 14 15 15 16 16 17 18 18 18 17 17 17 18 18 17 17 18 18 18 18 18 18 19
13 15 16 16 15 15 13 12 11 11 10 7 6 7 9 10 10 11 13 14 16 20 23 25 26 26 21 19 19 20 20 20 19 17 16 14 13 12 11 10 10 10 9 9 10 10 11 12 13 13 13 13 13 13 14 14 15 15 15 15 15 15 15 16 16 17 18 19 20 20 20 20 20 20 20 20 20 20 20 20 20 20 20 20 21
12 13 14 15 15 14 13 12 11 11 10 8 4 5 7 8 9 11 14 14 15 20 24 25 27 26 22 20 21 21 21 20 20 18 16 15 13 12 12 11 11 10 10 10 10 10 11 12 12 13 13 13 13 14 15 16 16 16 16 17 17 17 17 17 17 18 19 19 19 19 19 20 19 19 20 21 21 20 20 20 21 21 21 21 21
12 12 13 13 14 14 13 11 11 10 9 9 7 6 6 7 8 10 14 13 13 19 24 24 24 23 22 22 22 22 21 21 20 18 16 15 14 13 13 12 12 12 11 12 11 11 12 13 13 14 14 15 16 16 17 18 18 18 19 18 19 18 18 18 18 19 19 19 19 20 20 20 19 17 18 18 18 17 18 19 20 20 20 20 21
12 12 12 12 13 13 13 11 10 9 9 9 9 8 4 5 8 9 11 13 14 18 24 24 23 22 21 22 22 21 21 21 20 19 17 16 15 14 14 13 13 13 13 14 14 14 14 14 15 16 17 17 17 17 18 19 19 19 20 20 20 20 19 19 20 21 23 23 23 23 23 22 21 19 18 18 17 17 18 18 19 18 18 19 19
13 12 12 12 11 12 13 12 11 9 8 8 8 8 7 3 5 7 9 13 15 16 20 23 23 23 22 22 21 21 21 20 18 18 18 17 16 15 15 15 14 15 15 16 16 15 15 16 17 17 17 17 17 17 18 19 20 21 21 21 20 20 20 22 23 24 24 24 24 25 26 26 25 23 21 21 20 20 19 19 18 19 19 19 20
13 13 12 11 10 11 12 13 12 10 8 7 7 8 9 9 8 8 8 11 15 16 16 19 22 24 24 23 21 20 21 19 17 16 17 18 17 15 15 15 15 16 18 18 18 18 17 18 18 18 17 17 18 20 21 22 22 22 22 22 22 22 24 26 24 21 19 18 19 20 22 24 26 26 25 24 23 22 20 20 19 20 20 21 22
13 13 13 12 11 11 10 10 10 9 9 8 9 9 10 12 13 12 9 6 11 17 16 15 18 24 26 24 21 19 19 18 16 16 16 17 16 15 15 16 17 19 20 20 20 20 20 20 19 18 18 19 20 22 23 24 23 23 25 26 27 28 28 26 22 17 16 16 16 16 16 18 21 23 25 25 24 22 21 21 21 21 22 23 24
13 13 13 12 12 12 9 7 7 7 8 8 9 10 10 11 13 14 12 7 5 14 15 13 15 22 27 27 24 19 17 16 15 15 16 16 16 17 17 17 19 20 20 19 19 19 19 20 20 20 21 21 22 23 23 23 24 26 28 29 28 26 24 22 19 17 17 17 17 16 15 15 16 17 20 21 21 21 21 21 22 22 23 25 26
13 13 12 11 10 11 9 7 6 6 6 6 5 7 9 10 12 13 13 11 3 8 12 13 15 20 23 26 26 22 19 19 19 19 20 19 20 21 20 19 20 21 21 22 21 20 21 22 22 22 22 22 22 23 24 25 26 25 23 21 19 18 17 16 16 16 16 16 16 16 16 16 16 17 18 19 20 21 21 21 22 23 24 25 26
13 11 11 11 11 11 9 7 7 7 6 4 3 5 7 9 10 12 12 12 7 2 7 10 13 17 18 20 24 23 21 21 21 21 21 21 22 23 23 23 24 24 24 24 23 23 24 25 25 25 25 24 24 24 24 24 22 19 16 15 15 14 12 12 12 13 14 15 16 16 16 17 18 18 19 20 20 20 21 21 22 23 23 24 24
13 10 10 11 11 10 8 7 6 6 5 5 4 4 4 4 5 6 8 8 7 5 5 7 12 17 19 19 21 23 23 24 23 22 22 22 23 25 26 27 29 29 28 27 26 27 29 30 29 28 27 26 25 23 21 19 17 15 14 15 15 14 12 11 12 13 14 16 17 17 18 18 19 19 19 20 20 21 21 21 21 22 22 22 22
14 11 11 12 12 10 8 7 6 4 3 5 4 4 3 1 2 2 5 6 7 6 3 3 9 16 20 21 21 24 27 28 27 26 25 25 25 27 29 31 33 33 33 31 31 32 33 30 25 22 22 22 21 19 18 16 15 15 15 15 15 14 13 13 13 15 16 17 18 18 18 19 19 19 19 20 20 20 20 20 20 20 20 20 21
13 12 12 12 12 10 7 6 6 5 4 5 5 5 6 5 4 5 7 10 10 7 3 2 5 9 14 18 21 24 27 28 28 27 26 25 26 27 28 29 30 31 31 28 25 25 25 22 18 17 18 19 19 18 17 16 16 16 16 16 15 14 13 14 15 16 17 18 18 18 19 19 19 19 19 19 18 18 17 17 18 18 19 20 22
11 11 11 11 10 9 6 5 5 7 7 7 7 7 8 8 7 7 6 8 11 10 8 7 7 7 8 11 15 18 21 23 23 22 21 20 20 20 19 17 17 19 20 19 18 18 19 20 20 20 20 20 19 18 17 16 17 16 16 14 13 13 14 16 17 18 18 18 18 19 19 18 18 18 17 17 16 16 17 18 19 20 21 22 23
10 10 10 10 9 9 8 8 9 10 12 12 12 10 9 9 10 10 9 8 9 10 10 11 11 11 11 12 13 13 15 15 16 16 16 15 15 15 16 15 14 16 19 20 21 20 21 21 21 21 20 18 16 15 14 14 14 13 13 12 12 13 15 17 18 18 18 18 18 18 17 16 16 15 15 15 16 17 18 19 20 20 21 22 23
9 9 9 9 8 8 8 10 11 12 12 13 14 14 13 11 11 12 12 11 9 9 10 12 12 13 13 14 15 15 15 14 14 15 15 13 11 10 12 14 15 17 19 20 19 19 18 18 18 16 14 12 12 11 12 12 12 12 12 12 14 15 17 18 19 19 18 17 17 15 14 14 13 14 14 15 16 17 18 19 20 21 22 22 22
10 10 10 9 9 8 8 8 9 10 10 11 13 15 15 13 13 13 12 12 11 11 10 11 12 13 13 13 13 14 14 14 13 13 13 13 11 9 8 9 10 11 13 15 15 14 14 13 12 11 10 10 10 10 11 12 12 12 13 14 15 17 18 19 19 18 17 15 14 13 12 12 13 14 14 15 16 17 18 19 20 21 21 21 21
11 11 11 11 11 11 10 9 9 9 9 10 11 13 14 15 15 15 14 14 14 13 13 12 12 12 12 13 12 12 12 11 11 11 11 11 11 10 10 9 9 10 11 12 13 13 12 11 10 10 10 11 11 11 12 13 13 14 15 16 17 18 18 18 17 15 14 12 12 12 12 12 13 14 14 15 16 17 18 19 19 19 19 19 20
11 12 12 12 12 12 12 12 11 11 11 11 11 12 12 13 15 15 15 15 15 15 14 13 13 13 12 12 12 12 12 12 12 11 10 10 10 10 10 10 10 11 12 13 13 13 13 12 12 11 12 12 13 13 14 15 15 15 16 16 17 17 16 15 13 12 11 11 11 12 12 12 13 14 14 15 16 17 17 18 18 18 18 18 18
13 13 13 14 14 14 14 14 14 13 13 13 13 13 13 14 14 15 15 15 15 15 15 14 13 13 13 12 12 12 12 12 13 13 13 12 11 10 10 11 11 12 13 14 14 14 13 14 13 13 13 13 14 14 15 15 16 16 16 15 15 13 12 11 11 10 10 11 11 12 12 13 13 14 15 15 16 16 16 16 16 16 16 16 16
12 13 14 14 14 15 15 15 15 15 15 14 14 14 14 14 15 15 15 15 15 16 16 15 14 14 13 13 12 12 12 12 12 12 12 12 11 10 10 11 11 11 12 12 13 13 13 13 13 13 14 14 15 15 15 15 15 15 14 13 12 11 10 10 10 10 10 11 11 11 12 12 13 13 14 14 14 15 15 15 15 15 14 14 14
11 12 12 13 13 14 14 15 15 15 15 15 15 14 14 14 14 14 14 15 15 15 15 16 16 15 15 14 14 13 13 13 12 12 12 12 12 12 12 12 12 12 13 13 13 13 13 13 13 13 14 14 14 14 14 13 13 12 11 11 10 10 9 9 9 10 10 10 10 10 11 11 12 12 12 13 13 13 13 13 13 13 13 13 13
11 11 12 13 13 14 14 14 14 14 15 15 15 15 15 14 14 14 14 14 14 14 15 15 15 15 15 15 14 14 13 13 13 13 13 13 13 13 13 14 14 14 14 14 14 14 13 13 13 13 12 12 12 12 12 11 11 10 10 10 9 9 9 9 9 9 9 9 9 9 9 10 10 11 11 11 11 11 11 11 12 12 12 12 11
12 12 13 13 13 14 14 14 14 14 14 14 14 14 15 15 15 15 15 14 14 14 14 14 14 14 14 13 13 13 13 13 12 12 12 13 13 13 14 14 14 15 15 14 14 13 13 12 11 11 10 10 10 10 10 10 10 10 9 9 9 9 9 9 9 9 8 8 8 8 9 9 9 10 10 10 10 10 10 10 10 10 10 9 9
13 14 14 15 15 15 15 15 15 15 15 15 14 14 14 14 14 15 16 16 16 16 16 15 15 14 14 13 13 13 13 13 13 13 13 13 13 13 14 13 13 13 13 13 12 11 11 10 10 10 10 10 10 10 10 10 10 9 9 9 9 10 10 9 8 7 7 7 7 7 7 7 8 8 8 9 9 9 8 8 8 8 8 9 10
13 14 14 14 15 16 16 17 17 17 16 16 16 15 15 14 14 15 15 16 16 17 17 16 16 16 15 15 14 14 14 14 13 13 13 13 13 14 14 13 12 12 12 11 11 10 9 9 9 9 10 10 10 10 10 10 10 10 10 10 10 10 9 8 7 6 6 6 5 5 6 6 6 7 7 7 7 7 7 7 7 8 9 10 11
14 14 14 14 15 15 15 16 17 17 17 17 17 16 16 15 15 15 15 15 16 16 16 16 16 16 16 15 15 14 13 13 14 14 13 13 13 13 13 12 11 11 11 10 10 10 9 9 10 10 10 10 11 11 11 11 11 11 10 10 9 9 8 7 7 6 5 3 4 4 4 5 5 5 5 6 6 6 7 7 8 9 10 11 11
15 16 16 16 16 16 16 16 16 17 17 17 17 17 17 16 16 15 15 15 15 15 15 15 15 15 14 15 14 14 13 13 12 13 13 14 13 13 12 11 11 11 11 11 11 10 10 10 10 11 11 11 11 11 11 10 10 10 9 9 8 8 8 7 6 4 2 2 3 3 3 3 3 4 4 5 6 6 7 8 9 10 11 11 12
15 15 15 16 16 17 17 17 18 18 18 18 18 17 17 17 17 16 16 15 15 15 15 14 14 13 13 13 13 13 12 12 11 12 12 13 13 12 12 11 11 11 11 11 11 11 11 11 11 11 10 10 10 10 9 9 9 8 8 8 8 8 7 6 4 3 2 2 1 1 1 2 3 4 5 6 7 7 8 9 10 10 11 12 13
14 15 15 15 16 16 16 17 17 18 18 18 18 18 18 17 17 17 17 16 16 15 15 15 14 13 13 12 12 12 12 11 11 11 11 11 12 12 12 11 11 12 12 12 12 12 11 11 11 10 10 9 9 9 9 8 8 8 8 8 8 7 6 5 4 4 3 2 1 1 2 2 3 4 5 6 7 8 8 9 9 10 11 11 12
14 14 15 15 16 16 16 16 17 17 17 18 18 18 18 17 17 17 17 17 16 16 15 15 15 14 13 13 13 13 12 12 11 11 11 11 11 12 12 12 12 12 12 12 11 11 11 10 10 10 9 9 8 8 9 9 9 9 9 8 7 7 6 5 5 4 3 2 2 1 2 3 3 4 5 5 6 7 8 8 9 10 10 11 11
14 14 15 15 16 16 16 16 17 17 17 17 17 18 18 17 17 17 17 16 16 16 16 15 15 15 15 14 13 13 13 12 12 12 12 12 12 12 12 12 12 12 11 11 11 11 10 10 9 9 9 9 9 9 10 10 10 9 9 8 7 6 6 5 4 4 3 2 2 2 2 2 3 3 4 5 6 7 7 8 9 9 10 11 11
13 14 14 15 15 16 16 16 17 17 17 17 18 18 18 18 17 17 17 16 16 16 16 16 16 15 15 15 14 14 13 12 12 12 12 13 13 13 13 13 12 11 11 11 11 10 10 9 9 9 9 9 10 10 10 10 10 9 8 8 7 6 5 4 4 4 3 3 2 2 2 2 3 4 4 5 6 6 7 8 9 9 10 10 11
13 14 14 15 15 15 16 16 16 17 17 17 17 18 18 18 19 18 18 17 17 16 16 16 16 16 16 15 15 14 14 13 13 12 12 13 13 13 13 12 12 11 10 10 10 10 9 9 9 9 9 10 10 10 10 10 9 9 8 7 6 5 5 4 4 4 4 4 4 3 2 3 3 4 5 5 6 7 7 8 8 9 9 10 10
12 13 13 14 14 15 15 16 16 17 17 17 17 18 18 18 18 19 18 18 18 17 16 16 16 17 17 16 16 15 14 14 14 13 12 12 12 13 12 11 10 10 9 8 9 9 9 8 9 9 10 10 11 10 10 10 9 8 7 7 6 5 5 6 6 6 6 5 4 4 3 4 4 4 5 5 6 6 7 7 8 8 9 9 10
12 13 13 13 13 14 14 15 15 16 17 17 18 18 18 18 18 18 18 18 18 18 17 17 16 16 16 16 16 16 15 14 14 13 13 12 11 11 11 10 9 8 8 7 7 8 8 8 9 10 10 11 11 10 10 9 8 8 7 7 6 6 7 7 7 7 6 6 5 5 4 4 4 4 5 5 6 6 7 7 8 8 9 9 10
13 13 13 13 13 13 14 14 15 15 16 17 17 17 18 18 18 18 18 18 18 17 18 18 18 17 16 15 14 15 16 15 14 14 13 12 11 11 10 10 9 8 7 7 7 7 8 8 9 10 10 10 10 10 9 9 8 8 7 7 8 8 8 8 8 7 7 7 6 5 4 4 4 4 4 5 5 6 6 7 8 8 9 9 9
14 14 14 14 14 14 14 14 15 15 16 16 17 17 18 19 19 19 18 18 18 17 17 17 18 17 16 13 12 14 16 16 15 15 14 12 11 10 10 9 8 8 8 8 8 8 8 9 10 10 10 11 10 10 10 9 9 9 8 9 9 10 9 8 8 8 7 6 6 5 4 4 3 4 4 4 5 6 6 7 8 8 9 9 9
15 15 15 15 15 15 15 15 15 16 16 16 17 17 18 19 19 19 19 19 18 18 17 17 17 17 15 13 12 13 15 15 15 15 15 14 12 10 10 10 10 9 9 9 9 10 10 11 11 11 12 12 12 11 11 10 10 10 10 11 11 10 9 9 8 8 7 6 5 4 3 3 3 3 3 4 4 5 6 7 8 8 8 9 9
Wind_Direction
326 329 328 327 326 328 324 303 271 254 247 246 256 266 269 268 258 239 220 208 206 202 193 188 189 191 192 194 200 203 201 199 197 196 199 199 201 208 212 213 214 216 219 220 221 222 223 224 225 225 223 222 223 226 228 228 227 228 234 240 240 240 240 239 239 243 244 246 255 261 262 261 262 265 267 266 267 271 280 286 286 282 279 275 268
320 326 328 326 323 328 333 323 281 253 246 245 255 266 262 253 238 220 211 208 205 200 195 193 193 194 195 198 203 205 203 201 197 196 201 202 203 207 209 209 211 214 215 216 216 217 217 220 221 220 218 217 218 221 221 221 222 226 231 234 233 235 239 242 243 244 246 252 260 265 267 268 269 273 275 273 271 272 279 285 285 283 279 271 259
314 318 320 320 321 323 330 331 307 261 252 252 257 259 250 239 228 214 206 208 206 199 195 194 194 194 196 199 202 203 203 202 199 198 200 200 200 202 203 204 207 209 211 211 214 216 216 216 215 212 209 208 212 214 215 217 220 221 225 229 230 232 237 244 246 243 245 252 260 267 273 275 278 282 282 272 263 265 277 283 280 278 275 266 257
312 313 312 313 315 315 321 328 319 265 256 263 252 247 244 242 236 221 214 209 204 201 199 197 195 191 190 195 200 201 203 204 204 202 199 198 198 198 199 201 203 204 207 210 215 217 215 210 203 199 199 203 208 211 211 212 212 213 220 224 225 227 232 240 244 243 246 252 258 266 274 275 274 272 263 245 229 231 250 258 258 263 270 271 268
311 310 308 307 308 309 315 326 326 267 226 248 246 244 245 243 231 224 227 219 208 208 208 207 202 189 181 189 199 202 202 203 205 204 200 199 200 199 201 204 204 205 207 212 217 218 213 205 197 196 197 200 205 209 209 206 205 208 214 218 218 219 226 234 241 246 250 256 255 248 246 250 247 231 219 219 220 221 230 239 247 259 270 278 281
314 312 309 307 306 306 310 322 327 305 233 238 245 244 242 237 227 222 228 226 218 216 215 214 208 191 184 191 196 199 201 202 205 206 203 202 203 204 207 209 210 210 211 213 216 215 211 204 197 196 196 197 202 205 203 201 201 203 208 211 211 214 221 228 237 247 252 253 244 228 226 236 240 234 227 228 234 240 247 252 260 267 274 279 281
319 320 321 318 313 309 307 312 317 305 276 258 249 243 240 238 232 227 225 227 226 220 214 211 207 198 194 194 196 198 199 201 207 209 208 207 207 207 210 211 213 213 212 213 214 212 209 203 196 194 195 195 197 199 198 197 198 200 204 205 204 208 216 222 232 242 246 245 238 230 231 237 242 247 247 247 249 252 255 260 265 271 276 280 280
323 325 328 329 326 322 312 304 299 286 268 257 249 246 246 242 237 234 229 227 225 219 211 205 204 204 200 195 197 200 200 203 208 210 210 210 209 210 212 212 213 212 210 210 212 210 204 197 192 192 196 196 196 197 198 199 200 201 201 201 201 207 213 216 220 227 231 234 235 236 238 240 242 246 250 252 254 257 260 264 268 272 276 280 282
326 327 331 333 333 330 320 303 290 279 266 258 251 247 246 241 235 233 229 226 225 222 215 206 202 204 203 198 199 201 203 206 208 209 209 208 208 210 211 211 211 209 207 207 209 207 199 191 190 195 201 203 201 202 204 207 210 209 206 204 206 213 216 217 218 222 226 231 237 242 244 245 245 245 247 249 252 258 262 265 268 270 274 278 279
329 330 334 339 340 337 331 315 297 284 270 259 252 249 247 240 230 227 226 223 222 224 223 214 205 204 204 201 200 200 203 206 206 206 206 204 205 207 207 209 208 205 205 205 204 203 197 191 194 202 208 209 208 210 212 215 217 216 213 212 215 219 223 225 228 230 233 236 241 246 249 251 253 253 254 255 257 261 264 266 268 271 274 276 276
333 335 338 342 347 351 352 346 329 302 273 260 256 256 253 245 236 234 231 223 219 222 223 216 208 207 207 204 201 201 203 204 202 201 199 197 199 201 204 206 206 206 208 207 205 204 201 198 201 208 213 214 215 218 220 221 221 220 219 220 223 228 231 235 239 242 244 246 248 250 253 256 259 261 263 265 266 268 268 269 270 272 274 275 275
337 340 343 345 350 355 359 358 348 331 300 273 261 261 260 250 241 239 237 230 222 220 222 217 210 208 208 206 204 204 203 203 199 195 192 191 192 196 201 205 207 210 213 213 211 208 206 206 208 213 217 219 222 223 223 224 225 225 227 230 233 238 241 245 249 253 256 259 261 262 263 264 265 266 267 269 270 270 271 272 272 272 272 271 271
339 343 345 347 351 354 354 351 345 343 339 315 271 263 267 257 246 243 240 234 225 222 224 218 209 207 210 208 207 206 204 202 198 192 189 188 188 192 199 205 210 216 219 222 223 218 214 213 213 216 221 225 228 228 227 228 229 231 235 239 242 246 249 253 257 261 265 268 271 272 274 274 274 272 271 271 272 273 273 273 272 272 271 271 271
337 343 346 346 348 351 350 347 342 345 353 352 316 271 268 269 267 254 240 233 226 222 222 216 207 207 210 208 207 205 203 203 200 194 190 190 189 190 197 203 210 217 223 230 234 230 224 223 219 218 220 222 226 230 231 232 235 238 242 245 248 252 256 260 264 267 270 272 274 276 278 279 280 279 276 273 270 270 271 271 270 270 271 273 273
335 339 343 345 348 350 348 343 341 341 348 354 341 301 267 260 265 246 229 230 235 231 227 218 208 207 209 208 206 204 203 205 204 197 194 196 196 196 200 206 212 218 223 230 235 233 230 229 228 226 227 229 232 236 239 241 244 247 250 252 254 257 261 264 267 269 272 274 274 275 276 278 279 278 276 273 269 268 271 273 274 274 277 279 279
336 338 340 342 345 349 349 346 344 339 341 353 356 348 323 259 252 242 230 235 239 238 236 226 209 205 207 206 205 205 203 205 205 200 200 204 205 205 206 206 210 216 222 228 233 232 230 229 229 232 235 239 242 245 247 249 250 252 254 256 257 260 263 267 271 274 276 277 277 276 276 276 276 274 270 268 270 273 276 279 282 284 285 286 287
338 338 342 343 344 348 349 350 353 352 352 3 18 28 31 357 279 272 256 243 232 230 237 232 214 203 204 205 206 208 207 205 204 203 204 208 211 214 215 211 211 217 225 230 231 231 227 224 226 232 238 244 250 252 253 253 252 252 253 253 256 262 271 278 282 282 280 279 278 276 275 274 274 274 271 269 271 274 276 280 283 286 288 289 290
341 343 344 346 349 351 351 352 356 5 17 35 62 62 41 23 1 334 296 257 232 222 231 235 220 207 207 211 212 212 212 211 210 208 210 212 214 219 222 222 226 233 235 231 224 222 226 228 229 233 239 246 253 256 255 254 255 256 256 257 261 270 280 286 286 282 279 279 280 280 279 276 274 272 272 274 277 277 278 283 288 291 294 294 295
340 346 346 347 350 352 1 7 5 15 38 64 77 61 31 20 19 10 351 300 240 223 226 236 226 214 212 215 217 218 219 219 215 212 214 213 213 219 225 229 236 239 236 231 222 220 228 236 237 239 243 248 251 252 252 254 258 264 269 272 274 276 279 280 278 274 275 279 282 284 286 285 282 276 273 274 278 280 283 287 291 294 296 296 297
343 351 352 354 353 350 4 35 35 33 55 74 70 48 31 28 29 22 12 357 260 226 227 240 236 223 217 217 220 221 223 227 228 226 223 215 211 218 226 233 238 236 232 235 236 230 232 239 243 244 245 246 247 249 254 261 269 275 278 279 277 274 271 267 266 270 278 281 282 283 285 288 289 285 280 279 281 284 287 290 292 292 293 293 293
346 353 358 2 0 354 4 38 49 48 69 84 64 40 34 32 29 25 19 15 355 226 235 250 241 225 217 219 223 224 228 236 239 233 228 222 219 225 233 238 242 241 241 249 251 243 238 239 240 240 241 244 249 255 262 269 273 275 276 275 273 269 264 262 266 275 282 283 284 285 286 287 287 286 285 285 286 288 289 290 290 290 290 290 290
343 350 2 5 2 3 19 42 49 48 55 56 38 31 29 20 10 9 12 16 19 264 260 263 235 212 204 213 221 222 223 226 224 221 225 228 230 236 241 243 245 246 247 249 246 241 240 240 238 238 241 246 252 257 262 266 269 271 273 275 277 278 275 272 275 280 282 284 286 288 288 287 286 286 286 287 288 289 289 290 290 290 291 292 294
339 345 1 2 356 6 30 42 43 44 33 20 27 41 43 38 17 3 360 2 1 334 289 259 222 206 200 204 210 211 213 217 218 222 231 235 237 241 245 247 249 249 247 243 239 239 242 242 240 242 244 247 249 252 256 260 264 269 273 277 280 282 280 279 281 283 285 287 289 289 289 288 287 288 289 290 290 291 292 292 292 293 295 295 296
342 346 356 357 354 4 23 24 22 26 355 341 356 8 15 80 173 252 281 295 321 338 326 256 226 218 216 217 215 211 213 220 226 232 237 238 238 240 242 244 246 248 247 245 243 243 243 243 243 244 244 247 250 254 258 262 265 267 268 271 274 277 279 283 288 290 290 290 290 290 290 291 291 292 293 293 293 293 293 294 294 294 294 294 294
348 352 353 350 348 354 4 2 356 349 320 304 298 300 313 316 292 275 273 275 282 289 282 253 238 230 228 230 226 220 219 225 232 238 243 245 245 246 248 249 250 251 250 248 246 243 241 238 235 235 243 254 261 263 265 267 267 266 266 268 271 277 284 290 293 292 292 292 293 293 294 295 295 296 295 295 294 294 294 294 294 295 296 297 298
349 350 347 342 340 341 341 333 327 324 319 313 300 289 293 304 310 310 303 291 282 275 266 254 244 237 233 232 231 229 231 234 236 240 246 250 251 252 252 252 249 245 239 232 229 229 229 229 233 242 255 267 271 269 267 265 263 263 264 267 274 283 291 295 295 294 294 295 296 297 297 297 296 295 294 294 294 296 297 299 300 302 302 303 303
352 350 343 336 333 330 325 318 315 316 316 313 307 300 295 298 304 309 309 304 292 282 276 269 261 254 245 240 239 239 240 240 241 242 247 254 258 257 253 247 240 231 229 230 234 237 239 243 249 257 264 267 265 263 261 260 261 266 271 278 287 293 297 297 295 294 295 295 296 296 295 293 292 291 292 295 298 301 302 303 303 303 302 302 301
353 350 343 337 332 327 320 313 308 307 309 307 304 301 297 295 298 300 300 299 291 282 277 276 276 273 262 254 250 249 246 244 246 250 251 250 249 247 245 245 244 240 241 246 249 250 250 251 252 252 252 253 258 263 266 268 272 278 285 292 298 300 299 297 296 295 295 295 294 293 290 290 291 294 297 300 302 303 302 301 301 300 299 299 300
350 348 348 346 344 339 330 319 309 299 292 290 293 294 294 293 293 292 294 297 294 289 282 278 278 277 272 264 256 249 243 239 238 243 245 242 239 238 238 242 247 250 252 252 249 246 244 245 246 249 254 264 273 279 284 286 287 291 296 299 298 296 293 292 291 291 291 289 288 288 289 292 295 298 301 301 301 300 300 299 299 300 301 302 305
354 353 354 354 354 351 347 341 333 321 305 293 287 285 285 287 287 286 287 290 291 292 292 289 285 282 278 274 267 258 251 245 242 242 245 248 253 255 255 257 263 267 266 262 259 256 254 256 261 267 274 280 284 288 291 292 293 294 294 292 289 287 285 284 284 283 282 283 285 288 292 297 299 299 300 299 299 300 301 301 302 303 304 307 310
358 356 357 357 356 355 354 349 345 340 333 325 316 308 301 297 293 290 288 287 289 293 298 300 300 298 294 291 285 278 272 268 266 266 268 271 276 280 283 288 291 290 289 288 287 285 282 281 282 284 287 290 291 292 292 291 290 288 285 283 281 279 277 277 276 277 280 284 289 293 296 297 298 298 299 301 303 304 303 303 304 306 308 309 309
357 357 356 356 355 354 354 353 352 350 346 343 339 335 330 324 318 311 305 300 298 299 304 309 313 312 312 311 307 300 292 286 282 281 281 283 290 301 308 309 306 305 304 303 302 302 301 300 299 297 295 293 291 288 286 284 282 280 277 276 274 272 271 271 273 277 283 287 290 292 294 296 299 302 305 306 305 305 305 307 309 311 310 309 307
359 358 356 356 355 355 353 352 352 350 349 349 347 344 341 338 334 330 324 318 312 307 305 307 310 311 313 316 319 319 315 310 306 303 300 298 300 305 307 304 301 299 298 296 295 295 294 292 290 287 285 282 280 277 275 274 272 271 269 268 267 266 268 270 273 278 282 284 286 289 294 300 304 305 305 304 305 308 311 314 314 313 312 310 309
358 357 356 354 354 353 351 350 348 346 346 345 344 343 341 338 336 335 333 331 328 323 318 314 311 309 309 310 314 318 318 317 315 312 309 307 305 303 300 298 297 295 293 290 290 289 287 284 282 278 276 274 272 270 268 267 266 265 263 262 262 264 266 269 272 276 278 279 286 293 299 303 302 302 304 308 313 318 319 318 317 316 315 313 311
358 357 356 355 353 351 350 349 348 346 345 344 342 340 338 336 334 332 331 329 328 327 326 324 322 320 318 317 316 316 316 316 314 310 306 303 300 299 297 295 292 290 288 287 286 284 282 280 277 274 271 269 266 264 262 261 259 257 256 256 258 260 263 266 268 270 274 281 291 296 296 295 298 304 313 320 324 325 323 321 320 318 314 311 310
4 2 360 358 355 353 351 350 350 349 348 346 344 342 339 336 333 330 327 325 324 322 321 320 320 319 318 317 315 312 310 308 307 305 300 296 293 290 289 287 285 283 281 279 278 275 273 271 268 264 261 258 255 254 253 251 251 251 252 253 255 256 258 260 261 266 274 282 285 285 288 297 309 320 327 329 328 326 322 319 317 314 313 316 325
11 8 6 3 359 357 355 353 352 351 350 349 347 345 343 339 335 331 328 326 324 323 322 320 319 317 315 312 310 309 307 304 302 300 297 294 292 290 287 284 281 279 277 274 271 267 262 258 254 251 249 247 247 248 248 248 249 250 250 251 251 252 252 253 257 263 267 267 270 280 299 317 327 329 328 326 323 318 315 314 317 323 330 337 342
16 13 10 6 3 1 358 356 355 353 353 353 352 350 348 345 341 337 333 330 328 327 325 324 323 322 319 316 313 311 308 305 302 299 295 293 292 290 287 284 280 275 272 268 264 259 254 250 247 245 246 247 247 247 248 248 247 246 245 245 244 244 245 247 248 247 248 255 276 305 322 326 323 319 316 315 315 315 320 326 334 341 345 344 342
26 23 19 14 10 7 3 0 358 356 356 357 357 356 353 351 349 346 341 337 335 332 330 328 327 326 324 321 319 316 313 308 304 298 293 289 285 282 280 277 273 269 264 259 256 252 249 246 244 243 242 242 242 242 242 241 239 238 237 237 236 235 235 234 231 232 243 273 306 316 314 310 309 311 315 319 324 331 338 343 345 344 343 341 338
27 26 23 19 15 12 9 6 3 1 360 1 1 0 358 357 355 353 349 345 341 338 336 334 331 329 326 323 321 319 317 313 306 298 292 286 281 276 271 266 262 259 256 253 251 250 248 246 243 241 239 237 236 235 234 233 232 232 230 229 228 225 222 219 218 225 248 284 292 291 296 310 323 334 341 344 346 346 345 342 341 339 337 336 334
29 27 24 21 17 14 11 9 7 5 3 2 2 2 1 0 358 356 353 351 348 345 342 340 337 334 331 328 325 323 321 317 310 301 293 288 282 275 268 262 258 255 252 251 250 249 248 247 245 243 240 238 235 233 231 230 228 226 223 221 217 213 210 206 202 199 207 221 241 279 345 1 1 359 353 347 343 341 338 336 337 338 338 339 338
29 27 25 23 21 17 14 11 8 6 4 3 2 1 360 359 358 356 353 352 351 350 348 345 342 339 337 335 333 329 325 320 313 303 294 287 284 279 272 265 259 254 250 249 248 247 246 245 244 243 241 239 237 235 230 224 218 214 212 210 206 201 195 185 175 169 164 158 136 77 39 16 2 353 346 341 340 340 342 344 347 349 349 349 348
25 24 23 21 19 17 15 13 11 8 6 3 1 358 357 357 356 353 352 351 351 350 350 348 345 341 339 338 336 334 330 324 316 306 295 286 281 279 276 271 266 261 256 252 250 248 246 243 241 240 237 233 230 226 219 211 206 202 199 195 192 187 179 169 160 151 137 122 95 52 21 7 360 352 348 350 352 354 356 359 1 1 359 358 357
19 18 16 15 13 11 11 10 9 8 7 5 2 359 356 355 354 352 350 349 349 348 348 347 346 343 340 338 336 334 331 327 320 311 301 289 280 277 276 274 272 270 266 261 256 252 248 243 238 233 229 222 217 211 204 199 195 191 187 182 179 176 168 157 146 132 117 102 74 47 30 18 13 11 9 9 9 8 9 10 10 8 6 3 2
12 10 9 8 6 5 4 4 4 4 4 3 2 360 357 355 355 353 351 349 348 347 345 344 344 343 341 339 335 332 329 325 320 314 306 296 286 280 277 275 273 271 267 263 259 254 249 241 233 225 219 213 207 201 195 191 187 184 180 176 174 169 160 148 136 123 114 110 102 83 61 41 33 30 26 24 21 21 20 18 15 12 9 6 5
4 3 2 0 359 358 358 357 356 356 356 356 356 356 355 355 354 353 351 349 347 345 343 341 340 340 339 338 337 335 331 326 320 314 307 300 292 285 281 278 275 271 266 261 257 252 245 237 230 222 214 208 203 197 193 189 186 182 179 176 174 170 161 149 139 133 129 124 116 103 83 62 51 43 37 33 31 28 26 22 18 14 10 6 5
357 356 355 354 352 352 352 351 350 350 349 349 349 349 350 351 351 351 350 348 344 343 342 340 338 338 337 337 336 335 332 329 324 318 311 303 294 287 282 278 274 270 265 258 252 245 238 231 225 218 211 206 203 199 196 193 190 186 185 185 183 176 165 153 145 141 136 129 121 111 96 79 64 53 44 38 32 29 24 21 17 13 9 6 5
351 349 349 348 348 347 347 347 346 345 345 344 344 344 345 345 346 346 347 345 342 339 338 337 336 336 335 334 333 332 331 331 329 324 318 310 299 289 281 275 269 264 258 251 245 237 230 225 221 216 212 209 206 204 202 200 197 196 196 196 190 177 165 156 150 145 139 132 125 115 100 84 69 57 46 37 30 26 20 15 13 10 7 4 3
344 344 343 343 343 343 344 344 343 343 342 341 341 341 341 340 340 341 342 342 340 337 334 332 332 333 333 332 331 331 331 333 334 333 328 318 305 293 283 273 264 255 247 242 239 234 229 225 222 220 218 217 215 214 214 211 208 207 206 199 186 175 166 159 154 149 142 134 127 116 102 86 69 54 43 33 26 20 14 10 7 5 4 2 1
338 339 339 338 338 338 339 339 339 340 339 339 338 339 338 337 337 336 336 337 337 335 331 329 328 329 331 331 332 332 332 332 334 336 335 327 313 298 284 272 261 251 244 241 241 241 241 240 237 235 234 232 231 230 229 224 219 215 207 194 181 173 169 164 158 152 145 138 130 120 105 87 67 50 38 29 21 14 10 7 4 2 0 359 358
333 333 333 333 332 332 333 333 334 335 335 336 336 337 336 335 335 335 334 334 333 332 330 329 328 328 328 330 335 337 335 332 329 331 333 332 324 307 287 272 261 252 247 248 252 257 260 259 255 252 248 245 243 241 235 227 220 213 202 191 182 178 174 170 165 160 154 146 138 128 112 93 67 44 30 21 15 11 8 6 3 1 359 357 355
Height
3117 3115 3113 3112 3110 3108 3105 3103 3104 3105 3107 3109 3110 3112 3113 3115 3116 3117 3116 3115 3116 3117 3118 3119 3120 3122 3123 3125 3126 3127 3129 3131 3133 3135 3136 3137 3138 3139 3140 3141 3142 3143 3144 3145 3146 3146 3147 3148 3148 3149 3150 3152 3152 3153 3154 3156 3157 3158 3159 3160 3160 3161 3162 3163 3163 3163 3163 3163 3163 3164 3164 3164 3164 3165 3165 3165 3165 3165 3165 3165 3165 3165 3165 3165 3165
3116 3114 3112 3110 3108 3106 3105 3102 3101 3103 3104 3106 3108 3110 3112 3113 3114 3115 3114 3114 3115 3116 3118 3118 3119 3121 3122 3124 3125 3126 3127 3130 3132 3134 3135 3136 3137 3138 3139 3140 3141 3142 3143 3143 3144 3145 3146 3146 3147 3148 3149 3150 3151 3152 3153 3154 3155 3156 3157 3158 3159 3160 3161 3161 3162 3162 3162 3162 3162 3162 3162 3163 3163 3163 3163 3163 3163 3163 3163 3163 3163 3163 3163 3163 3163
3114 3113 3111 3109 3107 3105 3104 3102 3101 3102 3103 3105 3107 3109 3111 3111 3111 3112 3112 3112 3114 3115 3115 3116 3117 3119 3121 3123 3124 3126 3127 3129 3131 3133 3134 3135 3136 3137 3138 3139 3139 3140 3141 3142 3143 3143 3144 3145 3146 3147 3148 3149 3150 3151 3152 3153 3154 3155 3156 3157 3158 3159 3159 3160 3160 3161 3161 3160 3161 3161 3161 3162 3162 3162 3162 3162 3162 3162 3162 3162 3162 3162 3162 3162 3162
3112 3111 3110 3108 3107 3105 3104 3102 3101 3101 3102 3104 3106 3108 3109 3109 3110 3111 3110 3110 3111 3113 3113 3113 3114 3116 3118 3121 3123 3125 3127 3128 3130 3131 3132 3134 3134 3135 3136 3137 3138 3139 3140 3141 3141 3142 3143 3144 3145 3146 3146 3147 3148 3149 3150 3151 3153 3154 3155 3155 3156 3157 3158 3158 3159 3159 3159 3159 3160 3160 3161 3161 3161 3161 3161 3161 3161 3161 3161 3161 3161 3161 3161 3161 3161
3111 3109 3108 3107 3106 3104 3103 3102 3101 3100 3101 3103 3105 3106 3107 3107 3108 3109 3109 3109 3110 3112 3113 3114 3115 3115 3116 3119 3122 3123 3125 3127 3128 3130 3131 3132 3133 3134 3135 3136 3137 3137 3138 3139 3140 3140 3141 3142 3143 3144 3145 3146 3147 3148 3149 3150 3151 3152 3153 3154 3155 3156 3156 3157 3157 3158 3158 3158 3159 3159 3160 3160 3160 3160 3160 3160 3160 3160 3160 3160 3160 3160 3160 3160 3160
3109 3107 3106 3105 3104 3103 3102 3102 3101 3100 3101 3102 3103 3104 3105 3105 3106 3107 3108 3109 3110 3111 3112 3114 3116 3116 3116 3118 3120 3122 3123 3125 3127 3129 3130 3131 3132 3133 3134 3134 3135 3136 3137 3137 3138 3139 3140 3141 3142 3143 3144 3145 3146 3147 3148 3149 3150 3151 3152 3152 3153 3154 3155 3156 3156 3157 3157 3157 3158 3158 3158 3159 3159 3159 3159 3159 3159 3159 3159 3159 3159 3159 3159 3159 3159
3107 3106 3105 3104 3103 3102 3101 3101 3101 3101 3100 3101 3102 3102 3103 3104 3105 3106 3107 3107 3108 3110 3112 3113 3115 3116 3116 3117 3119 3120 3122 3124 3126 3127 3129 3130 3131 3131 3132 3133 3134 3135 3136 3136 3137 3138 3139 3140 3141 3142 3143 3144 3145 3146 3147 3148 3149 3149 3150 3151 3152 3153 3154 3155 3155 3155 3156 3156 3157 3157 3157 3158 3158 3158 3158 3158 3158 3158 3158 3158 3158 3158 3158 3158 3158
3106 3105 3104 3103 3102 3101 3100 3100 3100 3100 3100 3100 3101 3101 3101 3102 3103 3105 3105 3106 3107 3108 3110 3111 3112 3114 3115 3116 3118 3119 3121 3123 3124 3126 3127 3128 3129 3130 3131 3132 3133 3134 3135 3135 3136 3137 3138 3139 3140 3141 3142 3143 3144 3145 3146 3146 3147 3148 3149 3150 3151 3152 3152 3153 3154 3154 3155 3155 3156 3156 3156 3156 3156 3156 3157 3157 3157 3156 3157 3157 3157 3156 3156 3156 3156
3105 3104 3103 3102 3101 3100 3099 3098 3098 3098 3099 3099 3100 3100 3100 3100 3101 3102 3103 3104 3105 3106 3107 3108 3110 3112 3114 3115 3117 3118 3120 3121 3123 3125 3126 3127 3128 3129 3129 3130 3131 3132 3133 3134 3135 3136 3137 3138 3139 3140 3141 3142 3143 3144 3144 3145 3146 3147 3148 3148 3149 3150 3151 3151 3152 3153 3153 3154 3154 3154 3154 3154 3155 3155 3155 3155 3155 3155 3155 3155 3155 3155 3155 3154 3154
3105 3104 3103 3102 3101 3099 3098 3097 3097 3097 3097 3097 3098 3098 3098 3098 3099 3099 3100 3102 3103 3104 3106 3107 3109 3111 3113 3114 3115 3117 3118 3120 3122 3123 3125 3126 3127 3127 3128 3129 3130 3131 3132 3133 3134 3135 3136 3137 3138 3139 3140 3141 3142 3142 3143 3144 3145 3146 3147 3147 3148 3149 3149 3150 3150 3151 3151 3152 3152 3152 3152 3152 3152 3153 3153 3153 3153 3153 3153 3153 3153 3153 3153 3153 3152
3105 3103 3102 3101 3100 3099 3097 3096 3096 3096 3095 3095 3095 3096 3096 3097 3098 3098 3098 3099 3101 3103 3104 3105 3107 3110 3111 3113 3114 3115 3117 3118 3120 3122 3123 3124 3125 3126 3127 3128 3129 3130 3131 3132 3133 3133 3134 3136 3137 3138 3139 3140 3141 3141 3142 3143 3144 3144 3145 3146 3146 3147 3148 3148 3149 3149 3149 3150 3150 3150 3150 3150 3150 3151 3151 3151 3151 3151 3151 3151 3151 3151 3151 3151 3150
3104 3103 3102 3101 3099 3098 3097 3096 3095 3094 3093 3093 3094 3094 3094 3095 3097 3097 3097 3098 3099 3101 3102 3103 3105 3108 3110 3111 3113 3114 3115 3117 3119 3120 3121 3122 3123 3125 3126 3127 3128 3129 3130 3131 3132 3132 3133 3134 3136 3137 3138 3139 3139 3140 3141 3142 3142 3143 3143 3144 3145 3145 3146 3146 3147 3147 3147 3147 3147 3147 3148 3148 3148 3148 3148 3148 3148 3148 3148 3148 3148 3148 3148 3148 3147
3104 3103 3102 3100 3099 3098 3097 3096 3094 3093 3092 3091 3092 3093 3093 3094 3095 3096 3097 3097 3098 3099 3100 3102 3104 3106 3108 3110 3111 3112 3114 3116 3117 3118 3120 3121 3122 3123 3124 3126 3127 3128 3129 3130 3131 3131 3132 3133 3134 3135 3136 3137 3138 3139 3140 3140 3141 3141 3141 3142 3142 3143 3143 3144 3144 3144 3144 3144 3144 3145 3145 3145 3145 3145 3145 3145 3145 3145 3145 3145 3145 3145 3145 3145 3144
3104 3103 3102 3100 3099 3098 3097 3095 3094 3093 3092 3091 3092 3093 3093 3093 3094 3095 3095 3096 3097 3098 3099 3100 3101 3104 3107 3108 3110 3111 3113 3114 3116 3117 3118 3119 3120 3122 3123 3124 3125 3126 3127 3128 3129 3130 3131 3132 3133 3134 3135 3136 3137 3137 3138 3138 3139 3139 3139 3140 3140 3140 3140 3141 3141 3141 3141 3141 3141 3141 3142 3142 3142 3142 3142 3142 3142 3142 3141 3142 3141 3141 3141 3141 3140
3103 3103 3102 3100 3099 3098 3096 3095 3094 3093 3092 3092 3092 3092 3092 3093 3093 3094 3093 3094 3095 3096 3096 3098 3100 3102 3105 3107 3109 3110 3112 3113 3115 3116 3117 3118 3119 3120 3121 3123 3124 3125 3126 3127 3128 3129 3130 3131 3131 3132 3133 3134 3134 3135 3135 3136 3136 3137 3137 3137 3137 3137 3137 3137 3137 3137 3137 3137 3138 3138 3138 3138 3138 3139 3139 3138 3138 3138 3138 3138 3138 3138 3138 3137 3136
3102 3102 3101 3100 3099 3098 3096 3095 3094 3093 3092 3092 3092 3092 3091 3092 3092 3093 3093 3094 3094 3094 3095 3096 3098 3101 3103 3106 3107 3108 3110 3111 3113 3115 3116 3117 3118 3119 3120 3121 3122 3123 3124 3125 3126 3127 3128 3129 3129 3130 3131 3132 3132 3133 3133 3134 3134 3134 3135 3135 3135 3135 3134 3134 3134 3134 3134 3134 3134 3133 3134 3134 3134 3135 3135 3134 3134 3134 3134 3134 3135 3135 3134 3134 3133
3101 3101 3101 3100 3099 3097 3096 3095 3094 3093 3092 3092 3092 3092 3091 3091 3092 3092 3093 3093 3093 3094 3094 3094 3096 3099 3102 3103 3105 3106 3108 3110 3111 3113 3114 3115 3116 3117 3118 3119 3120 3121 3122 3123 3124 3125 3126 3127 3127 3128 3129 3130 3130 3131 3131 3132 3132 3132 3132 3132 3132 3132 3132 3131 3131 3131 3130 3130 3129 3129 3129 3130 3130 3131 3131 3131 3131 3131 3131 3131 3131 3131 3131 3130 3130
3100 3100 3099 3099 3098 3098 3096 3095 3094 3093 3093 3092 3092 3092 3092 3092 3092 3091 3091 3091 3092 3093 3093 3094 3095 3098 3100 3102 3103 3104 3107 3109 3110 3111 3112 3113 3114 3115 3116 3118 3118 3119 3119 3120 3122 3123 3124 3124 3124 3125 3127 3127 3128 3128 3129 3129 3129 3129 3129 3129 3129 3129 3129 3128 3128 3127 3127 3126 3126 3126 3126 3126 3126 3127 3127 3128 3127 3127 3127 3127 3127 3127 3126 3126 3126
3100 3099 3098 3097 3097 3097 3096 3095 3094 3093 3093 3093 3093 3093 3093 3092 3091 3090 3090 3090 3091 3092 3092 3094 3095 3097 3099 3101 3103 3104 3106 3108 3109 3110 3111 3112 3113 3114 3115 3116 3117 3117 3118 3118 3120 3121 3122 3122 3122 3123 3124 3124 3125 3125 3125 3126 3126 3126 3126 3126 3126 3126 3125 3125 3125 3124 3124 3124 3124 3123 3123 3123 3122 3123 3123 3124 3124 3123 3123 3123 3123 3123 3122 3122 3122
3100 3099 3098 3096 3096 3096 3096 3095 3095 3094 3093 3093 3093 3093 3093 3092 3091 3091 3091 3090 3090 3091 3092 3093 3094 3096 3098 3100 3102 3104 3106 3108 3109 3110 3110 3111 3112 3113 3114 3115 3115 3116 3117 3117 3118 3119 3119 3119 3120 3120 3121 3121 3121 3122 3122 3122 3122 3122 3122 3122 3121 3121 3121 3121 3121 3121 3121 3121 3121 3121 3120 3120 3120 3120 3120 3120 3120 3120 3119 3119 3119 3119 3119 3118 3118
3100 3099 3098 3097 3096 3095 3095 3095 3095 3094 3094 3093 3093 3093 3093 3093 3092 3092 3091 3091 3091 3091 3092 3093 3093 3094 3096 3098 3100 3102 3104 3106 3108 3109 3109 3110 3111 3111 3112 3113 3114 3114 3115 3115 3116 3116 3117 3117 3117 3117 3117 3118 3118 3118 3119 3119 3119 3119 3119 3119 3118 3118 3118 3118 3118 3118 3118 3118 3118 3118 3118 3118 3118 3118 3118 3118 3117 3117 3117 3117 3116 3116 3116 3115 3115
3101 3100 3098 3097 3096 3096 3095 3095 3095 3095 3094 3094 3093 3093 3093 3093 3092 3092 3092 3091 3091 3092 3092 3093 3093 3094 3096 3097 3098 3100 3103 3104 3106 3106 3106 3107 3108 3109 3110 3110 3111 3111 3112 3112 3113 3113 3113 3113 3113 3113 3114 3114 3114 3115 3115 3116 3116 3116 3116 3116 3115 3115 3115 3115 3115 3115 3115 3116 3116 3116 3116 3116 3115 3115 3115 3115 3115 3114 3114 3114 3113 3113 3112 3112 3111
3100 3100 3099 3098 3097 3097 3096 3096 3095 3095 3095 3094 3094 3094 3093 3093 3093 3092 3092 3092 3092 3092 3092 3092 3093 3094 3095 3095 3096 3098 3100 3101 3102 3103 3103 3104 3105 3106 3106 3107 3107 3108 3109 3109 3109 3109 3109 3109 3109 3109 3110 3110 3111 3111 3112 3112 3113 3113 3113 3113 3113 3113 3112 3112 3113 3113 3113 3113 3113 3113 3113 3113 3113 3112 3112 3112 3111 3111 3111 3110 3110 3109 3109 3108 3108
3100 3099 3099 3099 3098 3098 3097 3097 3096 3096 3095 3095 3095 3094 3094 3094 3094 3093 3093 3093 3093 3093 3092 3093 3093 3093 3094 3094 3095 3096 3097 3098 3099 3100 3100 3101 3102 3102 3103 3103 3103 3104 3105 3106 3105 3105 3105 3106 3106 3106 3106 3107 3107 3108 3109 3109 3109 3109 3109 3110 3110 3110 3110 3110 3110 3110 3110 3110 3110 3110 3110 3109 3109 3109 3108 3108 3108 3107 3107 3107 3107 3106 3106 3105 3105
3099 3099 3099 3099 3099 3098 3098 3097 3097 3096 3096 3095 3095 3095 3095 3095 3094 3094 3094 3093 3093 3093 3092 3092 3093 3093 3093 3094 3094 3094 3095 3096 3097 3098 3098 3099 3099 3099 3099 3100 3100 3100 3101 3102 3102 3101 3101 3102 3102 3102 3103 3104 3105 3105 3106 3106 3106 3106 3106 3106 3106 3107 3107 3107 3107 3107 3107 3107 3106 3106 3106 3105 3105 3105 3104 3104 3104 3104 3104 3104 3103 3103 3102 3102 3101
3098 3098 3098 3098 3098 3098 3098 3098 3097 3097 3096 3095 3095 3095 3095 3094 3094 3094 3093 3093 3093 3093 3092 3091 3091 3091 3092 3092 3093 3093 3094 3094 3094 3095 3096 3096 3096 3096 3096 3096 3096 3097 3097 3098 3098 3098 3098 3098 3099 3099 3100 3101 3102 3102 3102 3103 3103 3103 3103 3103 3103 3104 3104 3104 3104 3104 3103 3103 3103 3103 3103 3102 3102 3101 3101 3101 3101 3101 3101 3100 3100 3099 3098 3097 3097
3098 3098 3098 3098 3097 3097 3097 3097 3097 3097 3096 3095 3095 3094 3094 3094 3093 3093 3093 3093 3092 3092 3092 3091 3091 3091 3091 3091 3091 3091 3091 3092 3092 3093 3093 3093 3093 3093 3093 3094 3094 3094 3095 3095 3095 3095 3095 3096 3096 3097 3098 3099 3099 3099 3099 3099 3099 3099 3100 3100 3100 3100 3101 3101 3101 3101 3100 3100 3100 3100 3100 3099 3099 3098 3098 3098 3098 3098 3097 3097 3096 3095 3095 3094 3093
3097 3097 3097 3097 3096 3096 3096 3096 3096 3096 3096 3095 3094 3094 3093 3093 3093 3092 3092 3092 3092 3092 3092 3091 3091 3091 3090 3090 3089 3089 3089 3089 3090 3090 3090 3090 3090 3090 3091 3091 3091 3092 3092 3093 3093 3093 3093 3093 3094 3094 3095 3095 3096 3096 3096 3096 3097 3097 3097 3097 3097 3097 3098 3098 3098 3098 3097 3097 3097 3097 3097 3096 3096 3096 3096 3096 3095 3095 3094 3094 3093 3093 3092 3091 3090
3097 3097 3097 3096 3096 3095 3095 3095 3095 3095 3094 3094 3094 3093 3092 3092 3092 3092 3091 3091 3090 3090 3090 3090 3090 3090 3090 3089 3089 3088 3088 3088 3088 3088 3088 3088 3088 3088 3089 3089 3089 3089 3090 3090 3090 3090 3090 3090 3091 3091 3092 3092 3093 3093 3094 3094 3094 3094 3094 3094 3095 3095 3095 3095 3095 3095 3095 3095 3094 3094 3094 3094 3094 3093 3093 3093 3093 3092 3092 3091 3090 3089 3089 3087 3086
3097 3096 3096 3096 3095 3095 3094 3094 3094 3094 3093 3093 3093 3092 3092 3091 3091 3090 3090 3090 3089 3089 3089 3089 3089 3089 3088 3088 3088 3087 3087 3087 3086 3086 3086 3086 3086 3087 3087 3087 3087 3088 3088 3088 3088 3088 3088 3088 3088 3089 3090 3090 3091 3091 3091 3091 3092 3092 3092 3092 3092 3092 3093 3093 3093 3092 3092 3092 3092 3092 3091 3091 3091 3091 3091 3090 3090 3090 3089 3088 3087 3086 3085 3084 3083
3096 3096 3096 3095 3095 3094 3094 3093 3093 3093 3092 3092 3092 3091 3091 3090 3090 3090 3089 3089 3088 3088 3087 3087 3087 3087 3087 3087 3086 3086 3086 3086 3086 3085 3085 3085 3085 3085 3085 3085 3085 3085 3085 3086 3086 3086 3086 3086 3086 3087 3087 3088 3088 3088 3089 3089 3089 3089 3089 3089 3090 3090 3090 3090 3090 3090 3090 3090 3089 3089 3089 3089 3089 3088 3088 3088 3087 3086 3086 3085 3084 3083 3082 3081 3081
3096 3095 3095 3094 3094 3093 3093 3093 3092 3092 3092 3091 3091 3090 3090 3089 3089 3088 3088 3087 3087 3087 3086 3085 3085 3085 3085 3085 3085 3085 3084 3084 3084 3083 3083 3083 3083 3083 3083 3083 3083 3083 3083 3083 3083 3083 3084 3084 3084 3084 3085 3085 3086 3086 3086 3086 3086 3086 3086 3087 3087 3087 3087 3087 3087 3087 3087 3087 3087 3087 3087 3087 3086 3086 3086 3085 3084 3084 3083 3082 3081 3080 3080 3079 3079
3096 3095 3095 3094 3093 3093 3092 3092 3092 3091 3091 3090 3090 3089 3089 3088 3088 3087 3087 3086 3086 3085 3085 3085 3084 3084 3083 3083 3083 3083 3083 3082 3082 3082 3081 3081 3081 3081 3081 3082 3082 3082 3082 3082 3082 3082 3082 3082 3082 3082 3082 3083 3083 3083 3083 3084 3084 3084 3084 3084 3084 3084 3085 3085 3085 3085 3085 3085 3085 3085 3085 3085 3084 3084 3083 3083 3082 3081 3080 3079 3078 3078 3077 3077 3076
3096 3095 3095 3094 3093 3093 3092 3092 3091 3090 3090 3089 3089 3088 3088 3087 3087 3086 3085 3085 3084 3084 3084 3083 3083 3083 3082 3082 3082 3082 3081 3081 3080 3080 3080 3080 3079 3079 3080 3080 3080 3080 3080 3080 3079 3079 3079 3079 3079 3079 3080 3080 3080 3081 3081 3081 3081 3081 3081 3082 3082 3082 3083 3083 3083 3083 3083 3083 3083 3083 3083 3083 3082 3082 3081 3081 3080 3078 3078 3077 3077 3076 3076 3075 3074
3096 3096 3095 3094 3093 3093 3092 3091 3091 3090 3089 3089 3088 3088 3087 3086 3086 3085 3085 3084 3084 3083 3083 3082 3082 3081 3081 3080 3080 3080 3080 3079 3079 3078 3078 3078 3077 3077 3077 3077 3077 3077 3077 3077 3077 3077 3077 3076 3077 3077 3077 3077 3078 3078 3078 3079 3079 3079 3079 3080 3080 3081 3081 3081 3081 3082 3082 3082 3082 3081 3081 3081 3081 3080 3079 3078 3077 3076 3076 3076 3075 3075 3074 3074 3073
3096 3095 3095 3094 3093 3093 3092 3091 3090 3090 3089 3089 3088 3087 3087 3086 3085 3085 3084 3084 3083 3082 3082 3081 3081 3081 3080 3080 3079 3079 3078 3078 3078 3077 3077 3076 3076 3076 3075 3075 3075 3075 3074 3074 3074 3074 3074 3074 3074 3074 3075 3075 3075 3076 3076 3077 3077 3077 3078 3078 3078 3079 3079 3079 3080 3080 3080 3080 3080 3080 3080 3079 3078 3077 3076 3076 3076 3075 3075 3074 3074 3073 3073 3072 3071
3096 3095 3094 3094 3093 3092 3091 3090 3090 3089 3089 3088 3088 3087 3087 3086 3085 3084 3083 3082 3082 3081 3081 3080 3080 3079 3079 3079 3078 3078 3077 3076 3076 3076 3075 3075 3074 3074 3073 3073 3073 3073 3072 3072 3072 3072 3072 3072 3072 3072 3073 3073 3073 3074 3074 3075 3075 3075 3076 3076 3077 3077 3077 3078 3078 3078 3078 3078 3079 3078 3077 3076 3075 3075 3075 3075 3075 3074 3074 3073 3073 3072 3071 3070 3069
3096 3095 3094 3093 3092 3091 3091 3090 3089 3089 3088 3088 3087 3087 3086 3085 3085 3084 3082 3081 3080 3080 3079 3078 3078 3077 3077 3076 3076 3076 3075 3074 3074 3073 3073 3072 3072 3071 3071 3071 3071 3071 3070 3070 3070 3070 3070 3070 3070 3070 3071 3071 3071 3072 3072 3073 3073 3074 3074 3075 3075 3075 3076 3076 3076 3077 3077 3077 3076 3075 3075 3074 3074 3074 3074 3074 3074 3073 3072 3072 3071 3070 3069 3068 3067
3096 3095 3094 3093 3092 3092 3091 3090 3089 3088 3088 3087 3087 3086 3085 3085 3084 3083 3082 3081 3080 3079 3078 3077 3076 3076 3075 3074 3074 3073 3073 3072 3071 3071 3070 3070 3069 3069 3069 3069 3069 3069 3069 3068 3068 3068 3069 3069 3069 3069 3069 3069 3070 3070 3071 3071 3072 3072 3073 3073 3073 3074 3074 3074 3075 3075 3075 3074 3073 3073 3073 3073 3073 3073 3073 3073 3072 3072 3071 3070 3069 3068 3068 3067 3066
3096 3095 3094 3093 3093 3092 3091 3090 3089 3088 3088 3087 3086 3086 3085 3084 3083 3082 3081 3080 3079 3078 3077 3076 3076 3075 3074 3073 3072 3072 3071 3070 3070 3069 3068 3068 3067 3067 3067 3067 3067 3067 3067 3067 3067 3067 3067 3067 3067 3067 3068 3068 3068 3069 3069 3070 3070 3071 3071 3071 3072 3072 3073 3073 3073 3073 3072 3072 3072 3072 3072 3072 3072 3072 3072 3071 3071 3070 3069 3069 3068 3067 3066 3065 3064
3096 3096 3095 3094 3093 3092 3091 3090 3089 3088 3088 3087 3086 3085 3084 3084 3083 3082 3081 3080 3079 3078 3077 3076 3075 3074 3073 3072 3071 3070 3069 3069 3068 3067 3067 3066 3066 3066 3066 3066 3065 3065 3065 3065 3065 3065 3065 3066 3066 3066 3066 3067 3067 3067 3068 3068 3069 3069 3070 3070 3071 3071 3071 3071 3071 3071 3071 3071 3071 3071 3071 3071 3071 3071 3070 3070 3069 3069 3068 3067 3066 3065 3065 3064 3063
3097 3096 3095 3095 3094 3093 3092 3091 3090 3089 3088 3087 3086 3085 3084 3083 3082 3081 3080 3079 3078 3077 3076 3075 3074 3073 3072 3071 3070 3069 3069 3068 3067 3066 3066 3065 3065 3065 3064 3064 3064 3064 3064 3064 3064 3064 3064 3064 3064 3065 3065 3065 3065 3066 3066 3067 3067 3068 3069 3069 3070 3070 3070 3070 3070 3070 3070 3070 3070 3070 3070 3070 3070 3069 3069 3069 3068 3067 3067 3066 3065 3064 3064 3063 3062
3097 3097 3096 3095 3094 3093 3092 3091 3090 3089 3088 3087 3086 3085 3084 3083 3082 3081 3080 3079 3078 3077 3076 3075 3073 3072 3071 3070 3069 3069 3068 3067 3066 3065 3065 3064 3063 3063 3063 3063 3063 3063 3062 3062 3062 3062 3062 3063 3063 3063 3064 3064 3064 3065 3065 3066 3067 3067 3068 3068 3068 3068 3068 3068 3068 3068 3069 3069 3069 3069 3069 3069 3068 3068 3068 3067 3067 3066 3065 3065 3064 3063 3063 3062 3061
3098 3097 3096 3095 3094 3093 3092 3091 3090 3089 3088 3087 3086 3085 3083 3083 3082 3081 3079 3078 3077 3076 3075 3074 3073 3072 3071 3070 3069 3068 3067 3066 3065 3064 3064 3063 3062 3062 3061 3061 3061 3061 3061 3061 3061 3061 3061 3062 3062 3062 3063 3063 3064 3064 3065 3065 3066 3066 3067 3067 3067 3067 3067 3067 3067 3067 3067 3067 3067 3067 3068 3068 3067 3067 3067 3066 3066 3065 3065 3064 3063 3063 3062 3061 3061
3098 3097 3096 3095 3095 3094 3093 3092 3090 3089 3088 3087 3086 3084 3083 3082 3081 3080 3079 3078 3077 3076 3074 3073 3072 3071 3070 3069 3068 3067 3066 3065 3064 3063 3063 3062 3061 3060 3060 3060 3060 3060 3060 3060 3060 3060 3060 3061 3061 3061 3062 3062 3063 3063 3064 3064 3065 3065 3065 3066 3066 3066 3066 3066 3066 3066 3066 3066 3066 3067 3067 3067 3067 3066 3066 3065 3065 3064 3064 3063 3063 3062 3061 3061 3060
3098 3097 3096 3095 3094 3094 3093 3092 3090 3089 3088 3087 3086 3085 3083 3082 3081 3080 3078 3077 3076 3075 3074 3073 3071 3070 3069 3068 3067 3066 3065 3064 3063 3062 3061 3061 3060 3059 3059 3059 3059 3059 3059 3059 3059 3059 3060 3060 3060 3060 3061 3062 3062 3063 3063 3064 3064 3064 3064 3065 3065 3065 3065 3065 3065 3065 3065 3066 3066 3066 3066 3066 3066 3065 3065 3065 3064 3064 3063 3063 3062 3062 3061 3061 3060
3098 3097 3096 3095 3094 3093 3092 3091 3090 3089 3088 3087 3086 3084 3083 3082 3080 3079 3078 3077 3076 3074 3073 3072 3071 3070 3068 3067 3066 3065 3064 3064 3062 3061 3060 3059 3059 3058 3058 3058 3058 3058 3058 3058 3058 3058 3059 3059 3060 3060 3060 3061 3061 3062 3062 3063 3063 3063 3063 3064 3064 3064 3064 3064 3064 3064 3065 3065 3065 3065 3065 3065 3065 3065 3064 3064 3064 3063 3063 3062 3062 3061 3061 3060 3059
3097 3096 3096 3095 3094 3093 3092 3091 3090 3089 3088 3087 3085 3084 3083 3081 3080 3079 3078 3076 3075 3074 3072 3071 3070 3069 3068 3066 3065 3064 3063 3063 3062 3061 3060 3059 3058 3057 3057 3057 3057 3057 3057 3057 3057 3058 3058 3059 3059 3059 3060 3060 3061 3061 3061 3062 3062 3062 3062 3062 3063 3063 3063 3063 3063 3064 3064 3064 3064 3065 3065 3065 3064 3064 3064 3064 3063 3063 3063 3062 3062 3061 3060 3059 3059
3096 3096 3095 3094 3093 3092 3091 3090 3089 3088 3087 3086 3085 3084 3082 3081 3080 3078 3077 3076 3074 3073 3072 3070 3069 3068 3067 3066 3065 3063 3062 3062 3061 3060 3059 3058 3057 3057 3057 3056 3056 3056 3056 3056 3057 3057 3057 3058 3058 3059 3059 3059 3060 3060 3060 3061 3061 3061 3061 3061 3061 3062 3062 3062 3063 3063 3063 3063 3064 3064 3064 3064 3064 3063 3063 3063 3063 3063 3062 3062 3061 3060 3060 3059 3058
3096 3095 3094 3093 3092 3092 3091 3090 3089 3088 3087 3086 3084 3083 3082 3080 3079 3078 3076 3075 3074 3072 3071 3069 3068 3067 3066 3065 3064 3063 3062 3061 3060 3059 3059 3058 3057 3056 3056 3056 3056 3056 3056 3056 3056 3056 3057 3057 3057 3058 3058 3058 3059 3059 3059 3059 3060 3060 3060 3060 3061 3061 3061 3062 3062 3062 3062 3063 3063 3063 3063 3063 3063 3063 3063 3063 3063 3062 3062 3061 3061 3060 3059 3058 3057
3094 3094 3093 3092 3091 3090 3090 3089 3088 3087 3086 3085 3083 3082 3081 3080 3078 3077 3075 3074 3073 3071 3070 3069 3067 3066 3065 3064 3064 3063 3062 3061 3060 3059 3058 3058 3057 3056 3056 3056 3055 3055 3056 3056 3056 3056 3056 3056 3056 3056 3056 3056 3057 3057 3057 3058 3058 3059 3059 3059 3060 3060 3061 3061 3061 3062 3062 3062 3062 3062 3062 3062 3062 3062 3062 3062 3062 3062 3061 3061 3060 3059 3058 3057 3057